Terug naar catalogus

FENGYUN 1C DEB

ActiefSSO
NORAD 30739·DEBRIS·🇨🇳 China

Gelanceerd May 10, 1999 vanaf Taiyuan Satellite Launch Center

Loading…

Volgende Passages (komende 24 uur)

TLE

VersSource: Space-Track

Epoch: Sep 14, 2026, 09:59 UTC

1 30739U 99025ASZ 26257.41644909  .00000323  00000-0  17970-3 0  9991
2 30739  98.7172 242.9781 0099543 248.4206 270.9027 14.15295250  7500

Volg FENGYUN 1C DEB in realtime met AllMySat

Download on the App Store